Time,TemperatureF,DewpointF,PressureIn,WindDirection,WindDirectionDegrees,WindSpeedMPH,WindSpeedGustMPH,Humidity,HourlyPrecipIn,Conditions,Clouds,dailyrainin,SolarRadiationWatts/m^2,SoftwareType,DateUTC
2013-04-18 00:03:00,55.0,55.0,-100.00,SW,215,0.0,1.0,100,0.00,,,1.02,0.000000,,2013-04-18 04:03:00,
2013-04-18 00:13:00,55.0,55.0,-100.00,SW,215,0.0,1.0,100,0.00,,,1.02,0.000000,,2013-04-18 04:13:00,
2013-04-18 00:33:00,53.0,53.0,-100.00,SSE,158,0.0,0.0,100,0.00,,,1.02,0.000000,,2013-04-18 04:33:00,
2013-04-18 00:43:00,53.0,53.0,-100.00,SSE,158,0.0,0.0,100,0.00,,,1.02,0.000000,,2013-04-18 04:43:00,
2013-04-18 00:53:00,53.0,53.0,-100.00,SSE,158,0.0,0.0,100,0.00,,,1.02,0.000000,,2013-04-18 04:53:00,
2013-04-18 01:02:00,53.0,53.0,-100.00,SSE,158,0.0,0.0,100,0.00,,,1.02,0.000000,,2013-04-18 05:02:00,
2013-04-18 01:12:00,53.0,53.0,-100.00,SSE,158,0.0,0.0,100,0.00,,,1.02,0.000000,,2013-04-18 05:12:00,
2013-04-18 01:42:00,53.0,53.0,-100.00,SSW,203,0.0,0.0,100,0.00,,,0.93,0.000000,,2013-04-18 05:42:00,
2013-04-18 01:52:00,53.0,53.0,-100.00,SSW,203,0.0,0.0,100,0.00,,,0.93,0.000000,,2013-04-18 05:52:00,
2013-04-18 02:02:00,53.0,53.0,-100.00,SSW,203,0.0,0.0,100,0.00,,,0.93,0.000000,,2013-04-18 06:02:00,
2013-04-18 02:12:00,53.0,53.0,-100.00,SSW,203,0.0,0.0,100,0.00,,,0.93,0.000000,,2013-04-18 06:12:00,
2013-04-18 02:32:00,52.0,52.0,-100.00,SSE,160,0.0,0.0,100,0.00,,,0.82,0.000000,,2013-04-18 06:32:00,
2013-04-18 02:42:00,52.0,52.0,-100.00,SSE,160,0.0,0.0,100,0.00,,,0.82,0.000000,,2013-04-18 06:42:00,
2013-04-18 02:52:00,52.0,52.0,-100.00,SSE,160,0.0,0.0,100,0.00,,,0.82,0.000000,,2013-04-18 06:52:00,
2013-04-18 03:02:00,52.0,52.0,-100.00,SSE,160,0.0,0.0,100,0.00,,,0.82,0.000000,,2013-04-18 07:02:00,
2013-04-18 03:12:00,52.0,52.0,-100.00,SSE,160,0.0,0.0,100,0.00,,,0.82,0.000000,,2013-04-18 07:12:00,
2013-04-18 03:42:00,52.0,52.0,-100.00,SSW,197,0.0,0.0,100,0.00,,,0.82,0.000000,,2013-04-18 07:42:00,
2013-04-18 03:53:00,52.0,52.0,-100.00,SSW,197,0.0,0.0,100,0.00,,,0.82,0.000000,,2013-04-18 07:53:00,
2013-04-18 04:02:00,52.0,52.0,-100.00,SSW,197,0.0,0.0,100,0.00,,,0.82,0.000000,,2013-04-18 08:02:00,
2013-04-18 04:12:00,52.0,52.0,-100.00,SSW,197,0.0,0.0,100,0.00,,,0.82,0.000000,,2013-04-18 08:12:00,
2013-04-18 04:42:00,51.0,51.0,-100.00,SSW,208,0.0,0.0,100,0.00,,,0.73,0.000000,,2013-04-18 08:42:00,
2013-04-18 04:52:00,51.0,51.0,-100.00,SSW,208,0.0,0.0,100,0.00,,,0.73,0.000000,,2013-04-18 08:52:00,
2013-04-18 05:02:00,51.0,51.0,-100.00,SSW,208,0.0,0.0,100,0.00,,,0.73,0.000000,,2013-04-18 09:02:00,
2013-04-18 05:12:00,51.0,51.0,-100.00,SSW,208,0.0,0.0,100,0.00,,,0.73,0.000000,,2013-04-18 09:12:00,
2013-04-18 05:43:00,50.0,50.0,-100.00,SSE,151,0.0,0.0,100,0.00,,,0.60,0.000000,,2013-04-18 09:43:00,
2013-04-18 05:53:00,50.0,50.0,-100.00,SSE,151,0.0,0.0,100,0.00,,,0.60,0.000000,,2013-04-18 09:53:00,
2013-04-18 06:03:00,50.0,50.0,-100.00,SSE,151,0.0,0.0,100,0.00,,,0.60,0.000000,,2013-04-18 10:03:00,
2013-04-18 06:12:00,50.0,50.0,-100.00,SSE,151,0.0,0.0,100,0.00,,,0.60,0.000000,,2013-04-18 10:12:00,
2013-04-18 06:33:00,50.0,50.0,-100.00,South,175,1.0,1.0,100,0.00,,,0.55,0.000000,,2013-04-18 10:33:00,
2013-04-18 06:42:00,50.0,50.0,-100.00,South,175,1.0,1.0,100,0.00,,,0.55,0.000000,,2013-04-18 10:42:00,
2013-04-18 06:53:00,50.0,50.0,-100.00,South,175,1.0,1.0,100,0.00,,,0.55,0.000000,,2013-04-18 10:53:00,
2013-04-18 07:03:00,50.0,50.0,-100.00,South,175,1.0,1.0,100,0.00,,,0.55,0.000000,,2013-04-18 11:03:00,
2013-04-18 07:12:00,50.0,50.0,-100.00,South,175,1.0,1.0,100,0.00,,,0.55,0.000000,,2013-04-18 11:12:00,
2013-04-18 07:32:00,50.0,50.0,-100.00,SSW,203,0.0,0.0,100,0.00,,,0.55,3.000000,,2013-04-18 11:32:00,
2013-04-18 07:42:00,50.0,50.0,-100.00,SSW,203,0.0,0.0,100,0.00,,,0.55,3.000000,,2013-04-18 11:42:00,
2013-04-18 07:52:00,50.0,50.0,-100.00,SSW,203,0.0,0.0,100,0.00,,,0.55,3.000000,,2013-04-18 11:52:00,
2013-04-18 08:02:00,50.0,50.0,-100.00,SSW,203,0.0,0.0,100,0.00,,,0.55,3.000000,,2013-04-18 12:02:00,
2013-04-18 08:12:00,50.0,50.0,-100.00,SSW,203,0.0,0.0,100,0.00,,,0.55,3.000000,,2013-04-18 12:12:00,
2013-04-18 08:42:00,51.0,51.0,-100.00,SE,139,1.0,1.0,100,0.00,,,0.55,19.000000,,2013-04-18 12:42:00,
2013-04-18 08:53:00,51.0,51.0,-100.00,SE,139,1.0,1.0,100,0.00,,,0.55,19.000000,,2013-04-18 12:53:00,
2013-04-18 09:03:00,51.0,51.0,-100.00,SE,139,1.0,1.0,100,0.00,,,0.55,19.000000,,2013-04-18 13:03:00,
2013-04-18 09:12:00,51.0,51.0,-100.00,SE,139,1.0,1.0,100,0.00,,,0.55,19.000000,,2013-04-18 13:12:00,
2013-04-18 09:43:00,56.0,56.0,-100.00,South,186,1.0,4.0,100,0.00,,,0.34,36.000000,,2013-04-18 13:43:00,
2013-04-18 09:53:00,56.0,56.0,-100.00,South,186,1.0,4.0,100,0.00,,,0.34,36.000000,,2013-04-18 13:53:00,
2013-04-18 10:03:00,56.0,56.0,-100.00,South,186,1.0,4.0,100,0.00,,,0.34,36.000000,,2013-04-18 14:03:00,
2013-04-18 10:12:00,56.0,56.0,-100.00,South,186,1.0,4.0,100,0.00,,,0.34,36.000000,,2013-04-18 14:12:00,
2013-04-18 10:33:00,73.0,73.0,-100.00,WNW,301,8.0,15.0,100,0.00,,,0.15,340.000000,,2013-04-18 14:33:00,
2013-04-18 10:43:00,73.0,73.0,-100.00,WNW,301,8.0,15.0,100,0.00,,,0.15,340.000000,,2013-04-18 14:43:00,
2013-04-18 10:52:00,73.0,73.0,-100.00,WNW,301,8.0,15.0,100,0.00,,,0.15,340.000000,,2013-04-18 14:52:00,
2013-04-18 11:03:00,73.0,73.0,-100.00,WNW,301,8.0,15.0,100,0.00,,,0.15,340.000000,,2013-04-18 15:03:00,
2013-04-18 11:12:00,73.0,73.0,-100.00,WNW,301,8.0,15.0,100,0.00,,,0.15,340.000000,,2013-04-18 15:12:00,
2013-04-18 11:33:00,78.0,57.0,-100.00,NE,49,7.0,15.0,49,0.00,,,0.07,656.000000,,2013-04-18 15:33:00,
2013-04-18 11:43:00,78.0,57.0,-100.00,NE,49,7.0,15.0,49,0.00,,,0.07,656.000000,,2013-04-18 15:43:00,
2013-04-18 11:53:00,78.0,57.0,-100.00,NE,49,7.0,15.0,49,0.00,,,0.07,656.000000,,2013-04-18 15:53:00,
2013-04-18 12:03:00,78.0,57.0,-100.00,NE,49,7.0,15.0,49,0.00,,,0.07,656.000000,,2013-04-18 16:03:00,
2013-04-18 12:13:00,78.0,57.0,-100.00,NE,49,7.0,15.0,49,0.00,,,0.07,656.000000,,2013-04-18 16:13:00,
2013-04-18 12:33:00,77.0,55.0,-100.00,NW,326,7.0,21.0,46,0.00,,,0.00,720.000000,,2013-04-18 16:33:00,
2013-04-18 12:43:00,77.0,55.0,-100.00,NW,326,7.0,21.0,46,0.00,,,0.00,720.000000,,2013-04-18 16:43:00,
2013-04-18 12:53:00,77.0,55.0,-100.00,NW,326,7.0,21.0,46,0.00,,,0.00,720.000000,,2013-04-18 16:53:00,
2013-04-18 13:03:00,77.0,55.0,-100.00,NW,326,7.0,21.0,46,0.00,,,0.00,720.000000,,2013-04-18 17:03:00,
2013-04-18 13:12:00,77.0,55.0,-100.00,NW,326,7.0,21.0,46,0.00,,,0.00,720.000000,,2013-04-18 17:12:00,
2013-04-18 13:43:00,77.0,55.0,-100.00,North,349,7.0,20.0,46,0.00,,,0.00,478.000000,,2013-04-18 17:43:00,
2013-04-18 13:52:00,77.0,55.0,-100.00,North,349,7.0,20.0,46,0.00,,,0.00,478.000000,,2013-04-18 17:52:00,
2013-04-18 14:03:00,77.0,55.0,-100.00,North,349,7.0,20.0,46,0.00,,,0.00,478.000000,,2013-04-18 18:03:00,
2013-04-18 14:13:00,77.0,55.0,-100.00,North,349,7.0,20.0,46,0.00,,,0.00,478.000000,,2013-04-18 18:13:00,
2013-04-18 14:43:00,78.0,56.0,-100.00,NW,321,8.0,19.0,46,0.00,,,0.00,396.000000,,2013-04-18 18:43:00,
2013-04-18 14:53:00,78.0,56.0,-100.00,NW,321,8.0,19.0,46,0.00,,,0.00,396.000000,,2013-04-18 18:53:00,
2013-04-18 15:03:00,78.0,56.0,-100.00,NW,321,8.0,19.0,46,0.00,,,0.00,396.000000,,2013-04-18 19:03:00,
2013-04-18 15:12:00,78.0,56.0,-100.00,NW,321,8.0,19.0,46,0.00,,,0.00,396.000000,,2013-04-18 19:12:00,
2013-04-18 15:43:00,79.0,54.0,-100.00,NW,323,7.0,22.0,42,0.00,,,0.00,492.000000,,2013-04-18 19:43:00,
2013-04-18 15:53:00,79.0,54.0,-100.00,NW,323,7.0,22.0,42,0.00,,,0.00,492.000000,,2013-04-18 19:53:00,
2013-04-18 16:03:00,79.0,54.0,-100.00,NW,323,7.0,22.0,42,0.00,,,0.00,492.000000,,2013-04-18 20:03:00,
2013-04-18 16:12:00,79.0,54.0,-100.00,NW,323,7.0,22.0,42,0.00,,,0.00,492.000000,,2013-04-18 20:12:00,
2013-04-18 16:43:00,79.0,52.0,-100.00,NNW,336,7.0,17.0,39,0.00,,,0.00,634.000000,,2013-04-18 20:43:00,
2013-04-18 16:52:00,79.0,52.0,-100.00,NNW,336,7.0,17.0,39,0.00,,,0.00,634.000000,,2013-04-18 20:52:00,
2013-04-18 17:03:00,79.0,52.0,-100.00,NNW,336,7.0,17.0,39,0.00,,,0.00,634.000000,,2013-04-18 21:03:00,
2013-04-18 17:12:00,79.0,52.0,-100.00,NNW,336,7.0,17.0,39,0.00,,,0.00,634.000000,,2013-04-18 21:12:00,
2013-04-18 17:43:00,78.0,50.0,-100.00,NNW,337,8.0,19.0,37,0.00,,,0.00,503.000000,,2013-04-18 21:43:00,
2013-04-18 17:53:00,78.0,50.0,-100.00,NNW,337,8.0,19.0,37,0.00,,,0.00,503.000000,,2013-04-18 21:53:00,
2013-04-18 18:03:00,78.0,50.0,-100.00,NNW,337,8.0,19.0,37,0.00,,,0.00,503.000000,,2013-04-18 22:03:00,
2013-04-18 18:13:00,78.0,50.0,-100.00,NNW,337,8.0,19.0,37,0.00,,,0.00,503.000000,,2013-04-18 22:13:00,
2013-04-18 18:42:00,78.0,48.0,-100.00,North,351,8.0,22.0,35,0.00,,,0.00,388.000000,,2013-04-18 22:42:00,
2013-04-18 18:53:00,78.0,48.0,-100.00,North,351,8.0,22.0,35,0.00,,,0.00,388.000000,,2013-04-18 22:53:00,
2013-04-18 19:04:00,78.0,48.0,-100.00,North,351,8.0,22.0,35,0.00,,,0.00,388.000000,,2013-04-18 23:04:00,
2013-04-18 19:12:00,78.0,48.0,-100.00,North,351,8.0,22.0,35,0.00,,,0.00,388.000000,,2013-04-18 23:12:00,
2013-04-18 19:42:00,75.0,48.0,-100.00,NNW,331,7.0,14.0,38,0.00,,,0.00,132.000000,,2013-04-18 23:42:00,
2013-04-18 19:52:00,75.0,48.0,-100.00,NNW,331,7.0,14.0,38,0.00,,,0.00,132.000000,,2013-04-18 23:52:00,
2013-04-18 20:01:00,75.0,48.0,-100.00,NNW,331,7.0,14.0,38,0.00,,,0.00,132.000000,,2013-04-19 00:01:00,
2013-04-18 20:12:00,75.0,48.0,-100.00,NNW,331,7.0,14.0,38,0.00,,,0.00,132.000000,,2013-04-19 00:12:00,
2013-04-18 20:42:00,69.0,47.0,-100.00,SW,230,3.0,10.0,45,0.00,,,0.00,16.000000,,2013-04-19 00:42:00,
2013-04-18 20:52:00,69.0,47.0,-100.00,SW,230,3.0,10.0,45,0.00,,,0.00,16.000000,,2013-04-19 00:52:00,
2013-04-18 21:01:00,69.0,47.0,-100.00,SW,230,3.0,10.0,45,0.00,,,0.00,16.000000,,2013-04-19 01:01:00,
2013-04-18 21:11:00,69.0,47.0,-100.00,SW,230,3.0,10.0,45,0.00,,,0.00,16.000000,,2013-04-19 01:11:00,
2013-04-18 21:42:00,65.0,49.0,-100.00,SE,139,3.0,10.0,57,0.00,,,0.00,0.000000,,2013-04-19 01:42:00,
2013-04-18 21:52:00,65.0,49.0,-100.00,SE,139,3.0,10.0,57,0.00,,,0.00,0.000000,,2013-04-19 01:52:00,
2013-04-18 22:02:00,65.0,49.0,-100.00,SE,139,3.0,10.0,57,0.00,,,0.00,0.000000,,2013-04-19 02:02:00,
2013-04-18 22:11:00,65.0,49.0,-100.00,SE,139,3.0,10.0,57,0.00,,,0.00,0.000000,,2013-04-19 02:11:00,
2013-04-18 22:42:00,64.0,55.0,-100.00,South,184,3.0,6.0,72,0.00,,,0.00,0.000000,,2013-04-19 02:42:00,
2013-04-18 22:52:00,64.0,55.0,-100.00,South,184,3.0,6.0,72,0.00,,,0.00,0.000000,,2013-04-19 02:52:00,
2013-04-18 23:01:00,64.0,55.0,-100.00,South,184,3.0,6.0,72,0.00,,,0.00,0.000000,,2013-04-19 03:01:00,
2013-04-18 23:12:00,64.0,55.0,-100.00,South,184,3.0,6.0,72,0.00,,,0.00,0.000000,,2013-04-19 03:12:00,
2013-04-18 23:43:00,67.0,52.0,-100.00,WSW,249,4.0,13.0,58,0.00,,,0.00,0.000000,,2013-04-19 03:43:00,
2013-04-18 23:53:00,67.0,52.0,-100.00,WSW,249,4.0,13.0,58,0.00,,,0.00,0.000000,,2013-04-19 03:53:00,